User: anonymous
Location: Slidell
(30.2789°N, 89.7378°W)
Time: 12:53:35
(UTC-05:00)
Language:

Cosmos 2360 Rocket - Orbit

View from above orbital plane
View from above orbital plane
View from above satellite
View from above satellite

Ground track
Ground track

The orbit data is extracted from the following two-line orbital elements,

1 25407U 98045B   14273.42971855  .00000273  00000-0  16346-3 0  5814
2 25407 071.0121 323.3459 0010038 276.8005 170.1369 14.15666897835962
Epoch (UTC): 30 September 2014 10:18:47
Eccentricity: 0.0010038
inclination: 71.0121°
perigee height: 833 km
apogee height: 847 km
right ascension of ascending node: 323.3459°
argument of perigee: 276.8005°
revolutions per day: 14.15666897
mean anomaly at epoch: 170.1369°
orbit number at epoch: 83596

The dashed part of the orbit path shows where the satellite is in the earth's shadow,  

DLR